TimeEST,TemperatureF,Dew PointF,Humidity,Sea Level PressureIn,VisibilityMPH,Wind Direction,Wind SpeedMPH,Gust SpeedMPH,PrecipitationIn,Events,Conditions,WindDirDegrees,DateUTC
12:20 AM,28.4,24.8,86,30.09,10.0,WNW,16.1,-,0.00,,Overcast,290,2013-01-07 05:20:00
12:54 AM,28.9,25.0,85,30.18,10.0,West,13.8,-,0.00,,Overcast,280,2013-01-07 05:54:00
1:38 AM,28.4,24.8,86,30.13,8.0,WNW,16.1,-,N/A,,Overcast,290,2013-01-07 06:38:00
1:54 AM,28.0,25.0,88,30.21,7.0,WNW,11.5,-,N/A,,Overcast,290,2013-01-07 06:54:00
2:54 AM,28.0,25.0,88,30.23,6.0,WNW,9.2,-,N/A,,Overcast,290,2013-01-07 07:54:00
3:54 AM,27.0,24.1,89,30.26,6.0,WNW,12.7,20.7,N/A,,Overcast,290,2013-01-07 08:54:00
4:54 AM,27.0,24.1,89,30.28,4.0,West,11.5,-,N/A,,Overcast,280,2013-01-07 09:54:00
5:54 AM,26.1,24.1,92,30.30,4.0,West,10.4,-,N/A,,Overcast,270,2013-01-07 10:54:00
7:54 AM,26.1,23.0,88,30.35,4.0,West,9.2,-,N/A,,Overcast,260,2013-01-07 12:54:00
8:33 AM,26.6,23.0,86,30.28,2.5,West,11.5,-,N/A,,Overcast,270,2013-01-07 13:33:00
8:54 AM,26.1,23.0,88,30.38,2.5,West,9.2,-,N/A,,Overcast,270,2013-01-07 13:54:00
9:54 AM,26.1,23.0,88,30.41,2.0,West,8.1,-,N/A,,Overcast,270,2013-01-07 14:54:00
10:43 AM,26.6,23.0,86,30.35,1.8,West,9.2,-,0.00,,Overcast,270,2013-01-07 15:43:00
10:52 AM,26.6,23.0,86,30.34,2.0,West,6.9,-,0.00,,Overcast,280,2013-01-07 15:52:00
10:54 AM,26.1,23.0,88,30.43,2.0,West,8.1,-,0.00,,Overcast,280,2013-01-07 15:54:00
11:27 AM,26.6,23.0,86,30.34,2.5,WNW,8.1,-,N/A,,Overcast,290,2013-01-07 16:27:00
11:30 AM,26.6,23.0,86,30.34,3.0,West,6.9,-,N/A,,Overcast,270,2013-01-07 16:30:00
11:54 AM,27.0,23.0,85,30.42,4.0,West,10.4,-,N/A,,Overcast,260,2013-01-07 16:54:00
12:03 PM,26.6,21.2,80,30.33,4.0,West,9.2,-,N/A,,Haze,270,2013-01-07 17:03:00
12:37 PM,26.6,21.2,80,30.32,5.0,West,12.7,-,N/A,,Haze,260,2013-01-07 17:37:00
12:54 PM,28.0,21.9,78,30.40,6.0,West,10.4,-,N/A,,Haze,260,2013-01-07 17:54:00
2:54 PM,28.0,21.0,75,30.39,10.0,WSW,9.2,-,N/A,,Overcast,250,2013-01-07 19:54:00
3:54 PM,28.0,21.0,75,30.39,9.0,WSW,3.5,-,N/A,,Overcast,240,2013-01-07 20:54:00
4:29 PM,26.6,19.4,74,30.30,10.0,WSW,5.8,-,N/A,,Scattered Clouds,240,2013-01-07 21:29:00
4:54 PM,26.1,19.0,75,30.39,9.0,WSW,5.8,-,N/A,,Partly Cloudy,240,2013-01-07 21:54:00
6:54 PM,25.0,18.0,75,30.38,9.0,SSW,4.6,-,N/A,,Clear,200,2013-01-07 23:54:00
7:54 PM,24.1,18.0,77,30.37,9.0,SSW,6.9,-,N/A,,Clear,200,2013-01-08 00:54:00
8:54 PM,24.1,18.0,77,30.36,9.0,SW,6.9,-,N/A,,Clear,220,2013-01-08 01:54:00
9:54 PM,24.1,18.0,77,30.36,9.0,SW,8.1,-,N/A,,Clear,220,2013-01-08 02:54:00
10:54 PM,24.1,18.0,77,30.34,10.0,SSW,9.2,-,N/A,,Clear,210,2013-01-08 03:54:00
11:54 PM,23.0,17.1,78,30.32,9.0,SW,9.2,-,N/A,,Clear,220,2013-01-08 04:54:00